Hourly Data Report for November 21, 2016

CARBERRY CS
MANITOBA

49°54'20.900" N
99°21'26.800" W
383.50 m
5010547
71170
WZE

Download Data

Hourly Data (November 2016)
Hourly Data Report for November 21, 2016
TIME
LST
Temp Definition
°C
Dew Point Definition
°C
Rel Hum Definition
%
Precip. Amount Definition
mm

Wind Dir Definition
10's deg

Wind Spd Definition
km/h
Visibility Definition
km
Stn Press Definition
kPa
Hmdx Definition


Wind Chill Definition


Weather Definition


00:00 -5.0 -8.7 75 0.0 13 14   97.28   -10 LegendNANA
01:00 -5.4 -8.6 78 0.0 14 15   97.30   -11 LegendNANA
02:00 -5.6 -8.5 80 0.0 14 15   97.25   -11 LegendNANA
03:00 -6.1 -8.5 83 0.0 14 15   97.27   -12 LegendNANA
04:00 -6.9 -8.7 87 0.0 13 14   97.24   -13 LegendNANA
05:00 -7.5 -9.0 89 0.0 13 10   97.25   -12 LegendNANA
06:00 -7.3 -8.8 90 0.0 13 11   97.20   -12 LegendNANA
07:00 -6.3 -7.9 89 0.0 14 18   97.17   -13 LegendNANA
08:00 -6.3 -8.0 88 0.0 14 16   97.11   -12 LegendNANA
09:00 -6.0 -7.8 87 0.0 14 14   97.11   -12 LegendNANA
10:00 -4.9 -7.1 85 0.0 14 15   97.13   -10 LegendNANA
11:00 -3.0 -6.1 79 0.0 12 14   97.11   -8 LegendNANA
12:00 -1.6 -5.8 73 0.0 13 20   97.04   -7 LegendNANA
13:00 -0.9 -5.5 71 0.0 12 19   96.98   -6 LegendNANA
14:00 0.2 -4.9 69 0.0 11 22   96.90     LegendNANA
15:00 -0.5 -5.2 71 0.0 10 15   96.87   -5 LegendNANA
16:00 0.2 -5.7 64 0.0 10 18   96.86     LegendNANA
17:00 -0.9 -6.0 68 0.0 10 14   96.83   -5 LegendNANA
18:00 -0.9 -5.9 69 0.0 11 19   96.72   -6 LegendNANA
19:00 -0.4 -6.0 66 0.0 12 20   96.63   -6 LegendNANA
20:00 -0.2 -5.9 65 0.0 13 19   96.65   -5 LegendNANA
21:00 0.2 -5.9 64 0.0 14 20   96.63     LegendNANA
22:00 0.4 -5.9 62 0.0 14 27   96.57     LegendNANA
23:00 0.4 -5.8 63 0.0 15 25   96.63     LegendNANA

Notes on Data Quality.

Legend

  • E = Estimated
  • M = Missing
  • NA = Not Available*
  • [empty] = Indicates an unobserved value
Date modified: